Home   Weather   La Ronge   Past weeks
Flag for Canada

Past Weather in La Ronge, Saskatchewan, Canada — Yesterday and Last 2 Weeks

Now
61 °F

Passing clouds.


Feels Like: 61 °F
Forecast: N/A
Wind: 3 mph from West

Location: La Ronge

Current Time: Sep 21, 2019 at 5:49:40 pm

Latest Report: Sep 21, 2019 at 5:00 pm


Visibility: 15 mi

Pressure: 29.73 "Hg

Humidity: 55%

Dew Point: 45 °F

Location of La RongeLocation

Past Weather in La Ronge — Graph

°F

La Ronge Temperature Yesterday

Maximum temperature yesterday: 64 °F (at 3:00 pm)
Minimum temperature yesterday: 52 °F (at 12:00 am)
Average temperature yesterday: 56 °F

High & Low Weather Summary for the Past Weeks

 TemperatureHumidityPressure
High73 °F (Sep 16, 3:00 pm)100% (Sep 6, 11:00 pm)30.41 "Hg (Sep 6, 11:00 pm)
Low39 °F (Sep 11, 1:00 am)42% (Sep 18, 4:00 pm)29.56 "Hg (Sep 17, 12:00 am)
Average55 °F80%29.98 "Hg
* Reported Sep 6 4:00 pm — Sep 21 4:00 pm, La Ronge. Weather by CustomWeather, © 2019

Note: Actual official high and low records may vary slightly from our data, if they occured in-between our weather recording intervals... More about our weather records

Advertising

La Ronge Weather History for the Previous 24 Hours

Scroll right to see more
 ConditionsComfort  
Time TempWeatherWind HumidityBarometerVisibility
4:00 pm
Sat, Sep 21
61 °FScattered clouds.6 mph55%29.75 "Hg15 mi
3:00 pm59 °FPartly sunny.10 mph59%29.76 "Hg15 mi
2:00 pm57 °FPartly sunny.14 mph63%29.77 "Hg15 mi
1:00 pm57 °FPartly sunny.13 mph67%29.78 "Hg15 mi
12:00 pm59 °FPartly sunny.7 mph63%29.78 "Hg15 mi
11:00 am57 °FPartly sunny.13 mph67%29.80 "Hg15 mi
10:00 am55 °FScattered clouds.9 mph72%29.82 "Hg15 mi
9:00 am54 °FPassing clouds.8 mph77%29.83 "Hg15 mi
8:00 am52 °FPartly sunny.9 mph88%29.82 "Hg60 mi
7:00 am52 °FPartly sunny.10 mph88%29.81 "Hg15 mi
6:00 am52 °FPassing clouds.6 mph88%29.80 "Hg15 mi
5:00 am52 °FPassing clouds.8 mph88%29.79 "Hg15 mi
4:00 am54 °FOvercast.13 mph88%29.78 "Hg15 mi
3:00 am52 °FPassing clouds.7 mph94%29.78 "Hg15 mi
2:00 am54 °FPassing clouds.9 mph88%29.77 "Hg15 mi
1:00 am54 °FPassing clouds.9 mph88%29.76 "Hg15 mi
12:00 am54 °FPassing clouds.7 mph94%29.76 "Hg15 mi
11:00 pm
Fri, Sep 20
54 °FPassing clouds.7 mph94%29.75 "Hg15 mi
10:00 pm54 °FPassing clouds.5 mph94%29.75 "Hg15 mi
9:00 pm55 °FPassing clouds.6 mph88%29.75 "Hg15 mi
8:00 pm55 °FPassing clouds.5 mph94%29.75 "Hg15 mi
7:28 pm55 °FPassing clouds.2 mph88%29.75 "Hg15 mi
7:00 pm57 °FSprinkles. Partly sunny.5 mph82%29.73 "Hg15 mi
6:00 pm59 °FPartly sunny.2 mph82%29.72 "Hg15 mi
5:00 pm64 °FPartly sunny.5 mph68%29.71 "Hg15 mi
Weather by CustomWeather, © 2019

See weather overview